Wind_Speed
7 7 7 8 9 9 10 9 9 8 8 7 7 8 8 8 8 8 8 9 9 10 10 11 12 13 13 14 14 15 15 16 16 17 17 17 17 17 17 17 17 17 17 17
7 8 8 8 8 9 10 10 10 9 10 9 8 9 10 10 10 10 11 11 11 12 13 13 14 15 16 16 16 17 17 17 17 18 19 19 19 19 19 19 19 19 19 19
8 8 8 8 8 9 9 10 11 11 11 10 11 12 12 12 12 12 13 13 14 14 15 15 16 17 17 17 18 19 20 20 21 20 21 21 21 21 21 21 21 21 20 20
9 9 10 9 9 9 10 11 11 12 12 12 13 14 14 13 13 14 15 15 16 16 17 18 19 19 20 20 20 21 22 23 23 23 23 23 23 24 24 23 23 23 23 22
11 11 12 11 11 11 11 12 12 13 13 14 14 15 15 15 15 16 17 17 18 19 20 20 21 22 22 23 23 24 24 25 25 25 25 26 26 26 26 26 26 25 25 25
13 14 14 14 13 13 14 14 14 14 15 15 16 17 16 16 17 18 19 19 20 22 22 23 24 24 25 25 26 27 28 28 27 28 28 28 29 29 29 29 29 29 28 27
16 17 18 16 15 16 17 16 16 17 17 18 18 19 19 19 20 21 21 22 23 24 25 26 27 27 28 28 29 30 31 31 31 31 32 32 32 32 32 32 32 32 32 31
18 20 20 19 19 19 18 19 19 19 19 20 21 21 22 23 24 24 25 26 26 27 28 29 30 30 31 32 33 34 34 35 35 35 35 35 35 35 34 35 35 34 34 34
22 22 22 22 22 21 21 22 22 22 22 23 23 24 25 26 27 28 28 29 30 30 31 32 33 34 35 35 36 37 38 38 38 38 38 38 38 38 37 37 37 37 37 37
23 23 24 24 24 24 24 24 24 25 25 25 26 27 28 29 30 30 31 32 33 34 35 36 37 38 39 39 40 41 41 41 41 41 41 41 41 41 41 41 41 40 40 39
26 26 25 26 26 26 26 26 26 27 27 28 29 30 31 32 33 33 34 35 36 38 39 40 41 41 43 43 44 44 44 44 44 44 44 44 44 44 44 44 44 44 43 43
28 27 28 28 28 28 28 29 29 29 30 30 32 33 34 35 35 36 37 38 39 41 42 43 44 45 46 47 48 47 47 47 47 47 46 47 47 47 47 47 47 47 46 46
29 29 30 30 30 30 30 30 31 32 32 33 34 35 36 37 38 39 40 41 42 44 45 46 47 48 49 50 50 50 50 50 50 49 49 49 50 49 49 49 49 49 49 48
30 31 32 32 31 32 32 32 32 33 34 35 36 37 38 40 41 42 43 44 45 47 48 49 50 50 51 51 51 51 52 52 52 52 51 51 51 51 51 51 50 50 50 50
32 33 34 34 34 34 35 35 36 36 37 38 39 40 41 43 44 45 46 47 48 49 50 50 51 51 51 51 52 52 52 52 52 53 52 52 52 53 53 52 52 51 50 50
35 35 36 36 36 37 38 38 39 40 41 41 42 43 44 46 47 47 48 49 50 51 51 52 52 53 53 53 53 53 53 53 53 54 53 53 54 54 53 53 53 52 52 51
36 36 37 38 39 40 41 41 42 42 43 44 45 46 47 48 49 50 50 51 51 52 53 53 54 54 54 55 55 55 54 54 54 54 54 55 55 55 55 55 54 53 52 52
37 38 39 40 41 42 42 43 44 45 46 47 48 49 49 50 51 51 52 52 53 54 54 55 56 56 56 56 56 56 55 55 56 56 56 56 56 56 56 56 55 54 53 52
40 41 41 42 43 43 44 45 46 47 48 49 49 50 51 51 52 52 53 54 54 55 55 56 56 56 56 56 56 56 56 57 56 56 56 56 56 55 55 55 54 53 53 52
41 42 42 43 44 45 46 47 48 49 49 50 51 52 52 53 53 53 54 54 55 56 56 56 56 56 56 56 56 56 56 56 56 55 55 54 54 53 53 52 51 51 50 49
43 43 44 45 46 47 48 48 49 50 50 51 51 52 52 53 53 54 54 55 55 55 56 56 56 56 56 56 55 55 54 54 54 54 53 52 51 50 50 49 49 48 47 46
45 46 46 47 47 48 49 49 49 50 50 51 52 52 53 53 54 54 54 55 55 56 56 56 55 55 55 54 54 53 53 53 52 52 51 51 49 48 48 47 46 45 45 44
46 47 48 48 49 49 49 49 50 50 51 52 52 53 53 54 54 54 54 54 55 56 56 55 54 53 53 53 52 52 51 51 51 50 50 49 48 47 46 45 44 43 43 43
47 48 48 49 49 49 49 50 51 51 51 52 52 53 54 54 54 54 55 55 55 55 54 53 52 52 51 51 50 50 50 49 48 48 47 46 44 44 43 43 42 41 41 41
48 48 49 49 49 50 50 50 50 51 51 52 52 53 53 54 54 54 54 54 53 53 52 51 50 50 50 49 49 48 48 47 45 44 43 42 41 41 40 40 39 39 39 39
48 48 48 48 49 49 49 49 50 50 51 51 51 52 52 53 53 52 52 51 50 50 49 48 48 49 49 48 47 46 46 44 43 42 41 41 40 39 38 37 37 37 38 38
47 47 47 47 47 47 48 48 49 49 49 50 50 49 49 49 49 49 48 48 48 48 48 48 48 48 47 46 44 44 43 42 41 40 39 38 38 38 37 36 36 35 35 35
Wind_Direction
211 216 219 213 210 212 213 215 218 232 251 255 260 264 269 272 273 276 278 281 286 290 293 295 298 300 303 306 308 310 312 312 311 311 311 311 311 310 310 311 312 314 316 317
219 224 227 224 222 223 224 228 235 241 253 259 267 270 273 276 278 278 279 282 285 287 289 293 296 297 300 301 305 307 308 309 308 308 308 308 307 307 308 307 307 308 309 310
226 234 233 235 234 234 235 239 245 249 256 263 268 272 277 280 279 278 279 281 283 286 289 293 296 298 299 300 302 304 304 305 306 306 306 305 305 305 304 304 304 303 303 304
236 242 248 250 247 247 247 248 253 258 263 265 268 274 277 277 277 277 278 279 281 284 287 290 293 296 298 298 300 301 301 301 301 301 302 302 301 301 301 301 300 299 298 298
239 247 254 252 250 252 254 255 259 264 267 269 269 272 276 277 277 278 280 281 282 284 286 289 291 294 296 297 298 299 300 300 298 298 298 299 299 298 297 297 296 296 295 294
242 249 254 255 252 255 258 261 264 268 271 272 272 274 277 278 278 279 281 283 285 286 287 288 290 291 294 295 296 297 298 299 297 297 297 297 297 296 295 294 293 293 292 292
246 250 255 258 258 259 261 265 268 269 272 273 274 277 279 279 280 282 284 286 286 286 287 288 289 290 292 294 295 295 296 296 295 295 295 295 295 294 294 292 291 290 290 290
250 251 256 260 261 262 266 267 269 271 273 274 276 279 280 282 283 284 285 286 287 287 288 288 289 289 291 293 294 295 295 294 293 293 293 293 293 292 292 291 290 289 288 287
254 257 261 262 264 265 267 270 271 272 273 275 277 279 281 283 284 285 286 287 287 288 288 288 289 290 291 292 292 293 293 293 292 292 292 292 291 291 290 290 289 288 287 286
258 259 261 263 265 266 267 269 270 272 274 276 278 280 282 284 285 285 286 287 288 288 288 288 289 289 290 291 291 291 292 292 291 290 290 290 290 290 290 289 288 287 287 285
259 260 262 263 265 267 269 270 272 273 275 277 278 280 282 284 285 286 287 288 288 288 289 289 289 290 290 290 290 290 290 290 290 290 289 289 288 288 288 288 288 287 286 285
261 263 263 264 266 268 270 271 273 275 277 278 280 281 283 285 286 287 287 288 289 289 290 290 291 291 290 290 290 289 289 289 289 289 289 288 288 287 287 287 286 286 285 283
262 264 265 266 267 269 270 272 275 277 278 279 281 283 284 286 287 288 288 289 289 290 291 291 291 291 291 290 290 290 290 290 289 288 288 288 288 287 286 286 285 285 284 282
262 265 267 269 269 270 272 274 276 277 279 281 282 284 285 287 288 289 289 289 290 291 291 292 292 292 291 291 290 290 290 290 289 289 288 287 287 287 287 286 285 284 282 281
263 265 267 269 270 272 273 275 276 278 279 281 283 285 287 288 289 289 289 290 291 291 292 292 292 292 292 291 291 291 291 290 290 289 288 288 287 287 287 287 286 284 282 280
266 266 267 269 271 273 274 276 278 279 281 283 284 286 287 288 289 290 290 291 292 292 292 292 293 292 292 292 291 291 291 290 290 290 289 288 287 287 286 286 285 284 282 280
269 270 270 271 272 273 275 277 279 281 282 283 285 286 288 289 289 290 291 291 292 292 292 292 293 293 292 292 291 291 291 290 290 289 289 288 288 287 286 285 284 283 282 281
270 271 273 273 274 276 277 279 280 282 283 285 286 288 289 289 290 291 291 292 292 292 293 293 293 292 292 292 292 291 290 290 290 290 290 289 289 288 287 286 284 283 282 281
270 272 274 275 276 278 279 280 282 283 284 286 287 287 288 289 290 291 291 292 292 293 293 293 293 292 292 292 292 291 291 291 291 291 290 290 289 289 288 286 285 283 282 280
272 274 275 276 278 279 280 281 283 284 285 286 287 288 289 290 290 291 292 292 293 293 294 294 293 293 293 293 293 292 292 291 291 291 291 291 290 290 288 287 285 283 281 280
274 276 277 278 279 280 281 282 283 284 285 286 287 288 289 290 291 292 292 293 293 294 294 294 294 294 294 294 293 293 292 292 291 291 291 291 291 291 289 288 285 283 281 280
275 277 278 280 280 281 282 283 284 285 286 287 288 289 290 291 291 292 293 293 294 294 295 295 295 295 295 294 294 294 293 293 292 292 291 290 290 290 289 287 285 282 280 281
277 279 280 281 282 283 283 284 285 286 287 288 289 290 291 291 292 293 293 293 294 295 295 295 295 295 296 296 295 295 295 294 294 293 292 291 290 289 288 287 285 282 280 279
279 280 281 281 282 283 284 285 286 287 288 289 290 291 292 292 292 293 293 294 295 295 295 296 295 295 296 296 296 296 295 295 295 294 293 291 290 289 289 288 286 282 280 279
279 280 281 282 282 283 284 285 286 287 288 289 290 291 292 292 293 293 294 295 295 295 296 296 296 296 296 297 297 297 297 296 295 294 293 292 291 290 289 289 287 284 281 280
279 280 282 282 283 284 285 286 287 288 289 290 291 291 292 293 294 294 295 295 295 296 296 296 296 296 297 297 297 297 297 296 295 294 293 293 292 291 290 290 288 286 284 282
280 282 283 283 284 285 286 287 288 289 290 291 292 292 293 294 294 295 296 296 296 296 296 296 297 298 297 297 297 297 296 295 294 293 293 293 293 293 292 290 287 286 285 284
Height
5824 5825 5826 5827 5829 5830 5831 5832 5832 5833 5833 5834 5834 5835 5835 5835 5836 5836 5836 5836 5835 5835 5835 5835 5834 5833 5832 5832 5831 5830 5828 5827 5826 5824 5823 5821 5820 5818 5817 5815 5813 5812 5810 5808
5823 5824 5825 5826 5827 5828 5829 5830 5830 5831 5832 5832 5833 5833 5833 5833 5833 5833 5833 5833 5833 5832 5832 5831 5831 5830 5829 5828 5827 5826 5825 5823 5822 5820 5819 5817 5816 5814 5813 5811 5810 5808 5807 5805
5822 5822 5823 5825 5826 5826 5827 5828 5829 5829 5830 5830 5830 5830 5830 5830 5830 5830 5830 5829 5829 5829 5828 5828 5827 5826 5825 5824 5823 5822 5820 5819 5818 5816 5814 5813 5811 5809 5808 5806 5805 5804 5802 5801
5820 5822 5822 5825 5823 5824 5825 5826 5826 5826 5827 5827 5827 5827 5826 5827 5827 5826 5826 5825 5825 5825 5824 5823 5822 5821 5820 5819 5818 5817 5815 5814 5812 5811 5809 5807 5806 5804 5802 5801 5799 5798 5797 5795
5818 5818 5819 5820 5821 5821 5822 5823 5823 5823 5823 5823 5823 5823 5823 5823 5823 5822 5822 5821 5821 5820 5819 5818 5817 5816 5815 5814 5812 5811 5809 5808 5806 5804 5803 5801 5799 5797 5796 5794 5793 5791 5790 5789
5814 5815 5816 5817 5818 5818 5820 5820 5820 5820 5820 5819 5819 5819 5819 5819 5818 5818 5817 5816 5815 5814 5813 5812 5811 5810 5809 5807 5806 5804 5803 5801 5799 5797 5795 5794 5792 5790 5788 5786 5785 5784 5782 5781
5811 5811 5811 5813 5814 5815 5817 5817 5816 5816 5815 5815 5814 5814 5814 5814 5813 5812 5811 5810 5809 5808 5807 5806 5804 5803 5802 5800 5798 5797 5795 5793 5791 5789 5787 5785 5783 5781 5779 5777 5776 5774 5773 5772
5806 5806 5809 5809 5809 5811 5811 5811 5811 5811 5810 5810 5809 5809 5808 5807 5807 5806 5805 5804 5802 5801 5800 5798 5797 5795 5794 5792 5790 5788 5786 5784 5781 5779 5776 5774 5772 5770 5768 5767 5765 5764 5762 5761
5801 5803 5803 5803 5804 5804 5805 5805 5805 5805 5804 5804 5803 5802 5801 5800 5799 5798 5797 5796 5794 5793 5791 5790 5788 5786 5784 5782 5780 5778 5775 5773 5770 5768 5765 5763 5761 5759 5757 5755 5754 5752 5751 5750
5795 5795 5796 5797 5798 5798 5798 5798 5798 5798 5797 5797 5796 5795 5794 5792 5791 5790 5789 5787 5785 5784 5782 5780 5778 5776 5773 5771 5769 5766 5764 5761 5758 5756 5753 5751 5749 5747 5745 5743 5741 5740 5738 5737
5787 5789 5790 5790 5791 5791 5791 5791 5791 5790 5790 5789 5788 5787 5785 5784 5782 5781 5779 5777 5775 5773 5771 5769 5767 5764 5761 5759 5756 5754 5751 5748 5746 5743 5741 5738 5736 5734 5731 5730 5727 5726 5724 5722
5781 5782 5783 5783 5783 5783 5783 5783 5782 5782 5781 5780 5779 5778 5776 5774 5772 5771 5769 5766 5764 5762 5759 5757 5754 5751 5748 5745 5742 5740 5737 5735 5732 5729 5726 5724 5722 5720 5717 5715 5713 5710 5708 5707
5773 5773 5774 5774 5775 5775 5775 5774 5774 5773 5772 5771 5769 5768 5766 5764 5762 5760 5757 5755 5752 5750 5747 5744 5741 5737 5734 5731 5727 5724 5722 5719 5716 5714 5711 5709 5706 5704 5702 5700 5697 5695 5692 5691
5765 5765 5765 5765 5766 5765 5765 5765 5764 5763 5762 5761 5759 5757 5755 5753 5750 5748 5745 5742 5739 5736 5733 5729 5726 5723 5719 5715 5712 5709 5706 5703 5700 5697 5695 5692 5689 5687 5684 5682 5681 5679 5676 5674
5756 5756 5756 5756 5756 5756 5755 5755 5754 5753 5751 5750 5748 5746 5743 5741 5738 5735 5732 5728 5725 5722 5718 5715 5711 5708 5704 5700 5697 5693 5690 5687 5683 5680 5677 5674 5671 5669 5666 5664 5662 5660 5659 5657
5745 5746 5746 5746 5745 5745 5744 5743 5742 5741 5739 5738 5735 5733 5730 5727 5724 5721 5718 5714 5711 5707 5703 5700 5696 5692 5688 5684 5681 5677 5674 5670 5666 5663 5660 5657 5654 5651 5648 5646 5643 5641 5640 5639
5735 5735 5735 5734 5734 5733 5732 5731 5730 5728 5726 5724 5722 5719 5717 5713 5710 5707 5703 5700 5696 5692 5688 5684 5680 5676 5672 5668 5664 5660 5657 5653 5650 5646 5643 5639 5636 5633 5630 5627 5624 5623 5621 5619
5723 5723 5723 5723 5722 5721 5720 5718 5717 5715 5712 5710 5708 5705 5702 5698 5695 5692 5688 5684 5680 5676 5672 5667 5663 5659 5655 5651 5647 5643 5639 5636 5632 5628 5624 5621 5617 5614 5611 5608 5605 5603 5602 5600
5712 5711 5711 5710 5709 5708 5706 5705 5703 5700 5698 5695 5693 5690 5687 5683 5679 5676 5672 5668 5664 5660 5656 5651 5647 5642 5638 5634 5629 5626 5622 5618 5614 5610 5606 5603 5599 5595 5592 5589 5586 5584 5582 5581
5699 5698 5698 5697 5695 5694 5692 5690 5688 5686 5683 5680 5677 5674 5671 5667 5664 5660 5656 5652 5648 5643 5639 5634 5630 5626 5621 5617 5612 5608 5604 5600 5596 5592 5588 5585 5581 5577 5574 5570 5568 5565 5564 5562
5686 5685 5684 5683 5681 5680 5678 5675 5673 5671 5668 5665 5662 5658 5655 5652 5648 5644 5640 5636 5632 5627 5622 5618 5613 5609 5604 5600 5595 5591 5587 5582 5578 5575 5571 5567 5564 5560 5557 5554 5551 5548 5546 5545
5672 5671 5670 5668 5667 5665 5663 5660 5658 5655 5652 5649 5646 5642 5639 5636 5632 5628 5624 5619 5615 5611 5606 5601 5597 5592 5587 5583 5579 5575 5570 5566 5562 5558 5554 5550 5547 5543 5540 5537 5534 5532 5530 5529
5657 5656 5655 5653 5651 5649 5647 5645 5642 5639 5637 5634 5630 5627 5623 5619 5615 5612 5608 5604 5599 5594 5589 5585 5580 5576 5571 5567 5563 5558 5554 5550 5546 5542 5538 5534 5530 5527 5524 5521 5519 5516 5515 5513
5642 5641 5639 5638 5636 5634 5632 5630 5627 5624 5621 5618 5614 5611 5607 5603 5600 5595 5591 5587 5583 5578 5573 5569 5564 5560 5556 5551 5547 5543 5539 5534 5530 5526 5522 5519 5515 5512 5509 5506 5504 5502 5500 5499
5628 5626 5624 5623 5621 5619 5617 5614 5612 5609 5606 5602 5599 5595 5591 5587 5583 5579 5575 5571 5567 5562 5558 5554 5549 5545 5541 5536 5532 5528 5524 5519 5515 5511 5508 5504 5501 5498 5495 5492 5490 5488 5487 5485
5613 5611 5610 5608 5606 5604 5601 5599 5596 5593 5590 5587 5584 5580 5576 5572 5567 5563 5559 5555 5551 5547 5543 5539 5535 5531 5526 5522 5518 5513 5509 5505 5501 5498 5494 5491 5488 5485 5482 5479 5477 5475 5473 5472
5598 5597 5595 5593 5591 5589 5586 5584 5581 5578 5575 5572 5568 5565 5560 5556 5552 5548 5545 5541 5536 5532 5529 5524 5520 5516 5512 5508 5504 5500 5495 5492 5488 5485 5482 5478 5475 5472 5469 5467 5464 5463 5461 5460